www.pogodaiklimat.ru

Погода и климат >> Архив погоды >> Россия >> Ненецкий АО >> Нарьян-Мар


АРХИВ ПОГОДЫ в Нарьян-Маре

Время (UTC), дата Ветер
(напр.,м/с)
 
Видим.   Явления Облачность Т
(С)
Тd
(С)
f
(%)
Тe
(С)
Тes
(С)
Комфортность P
(гПа)
Po
(гПа)
Тmin
(С)
Tmax
(С)
R
(мм)
R24
(мм)
S
(см)
12 16.07 С 3
{13}
20 км {ливн. осадки} 10/10 480 м
[Cb cap]
+11.4 +10.7 95 +9 +9 очень
холодно
1004.7 1003.4
15 16.07 штиль 0 50 км слаб. ливневой дождь ?/? +13.1 +12.4 96 +13 +13 по сезону 1002.1 1000.8 +13.1 12
18 16.07 СЗ 4 10 км слаб. ливневой дождь 10/10 210 м
[Cb cap]
+12.6 +12.1 97 +11 +11 по сезону 1001.8 1000.5
21 16.07 ЮЗ 4 20 км {ливн. осадки} 10/10 210 м
[St]
+11.1 +10.5 96 +9 +9 по сезону 1003.8 1002.5
00 17.07 З 4 20 км {ливн. осадки} 10/10 210 м
[St]
+8.1 +7.1 93 +5 +5 прохладно 1006.6 1005.3
03 17.07 З 3 20 км в посл. час ливневой дождь 10/10 400 м
[Cb cap]
+8.4 +7.3 93 +6 +6 холодно 1009.6 1008.2 +7.8 5
06 17.07 З 3 20 км {ливн. осадки} 10/10 300 м
[St]
+9.9 +8.2 89 +8 +8 холодно 1012.3 1011.0
09 17.07 З 3 20 км 10/10 400 м
[Sc]
+11.1 +8.6 85 +9 +9 холодно 1014.7 1013.4
12 17.07 СЗ 2 20 км 9/9 900 м
[Sc]
+13.5 +8.8 73 +13 +14 прохладно 1016.2 1014.9
15 17.07 СЗ 3 20 км 9/8 1080 м
[Sc Ac trans]
+14.4 +8.7 69 +14 +14 по сезону 1017.7 1016.4 +14.8
18 17.07 С 1 20 км 8/0
[Ac lent Ci fib]
+13.4 +8.5 72 +14 +14 по сезону 1018.4 1017.1
21 17.07 СЗ 2 20 км 8/0
[Ac trans Ci fib]
+10.8 +7.3 79 +10 +10 по сезону 1018.7 1017.4
00 18.07 С 2 20 км 8/0
[Ac trans Ci fib]
+8.9 +7.6 92 +7 +7 по сезону 1019.8 1018.4
03 18.07 С 4 20 км 9/8 420 м
[Sc Ac trans Ci fib]
+10.6 +7.8 83 +8 +8 прохладно 1020.3 1018.9 +8.8
06 18.07 С 5-10
{11}
20 км 9/3 600 м
[Sc Ac trans Ci fib]
+12.7 +6.1 64 +11 +12 прохладно 1020.5 1019.2
09 18.07 С 4
{10}
20 км 9/1 600 м
[Sc Ac trans Ci]
+13.6 +6.6 63 +12 +16 прохладно 1020.0 1018.7
12 18.07 С 5
{11}
20 км 9/0
[Ac trans Ci fib]
+14.5 +7.4 62 +13 +15 прохладно 1019.5 1018.2
15 18.07 С 6-11
{12}
20 км 8/0
[Ac trans Ci fib]
+12.8 +6.3 65 +10 +11 прохладно 1019.2 1017.8 +14.5
18 18.07 С 5-10
{12}
20 км 9/0
[Ac trans Ci fib]
+11.4 +7.6 77 +9 +9 прохладно 1017.9 1016.6
21 18.07 С 5-10
{11}
20 км 8/0
[Ac trans Ci fib]
+11.0 +8.0 82 +8 +8 прохладно 1015.6 1014.3
00 19.07 С 6-11
{13}
10 км слаб. ливневой дождь 10/10 300 м
[Cb cap]
+9.9 +9.0 94 +6 +6 прохладно 1014.4 1013.1
03 19.07 С 6-11
{12}
20 км {ливн. осадки} 10/10 180 м
[St]
+10.5 +9.9 96 +7 +7 прохладно 1012.4 1011.1 +9.8 2
06 19.07 С 6-10
{11}
10 км слаб. ливневой дождь 10/10 240 м
[Cb cap]
+11.3 +10.4 94 +8 +8 холодно 1011.0 1009.7
09 19.07 С 5
{11}
4000 м слаб. ливневой дождь 10/10 240 м
[Cb cap]
+10.9 +10.3 96 +8 +8 холодно 1009.7 1008.4
12 19.07 СВ 3 4000 м слаб. ливневой дождь 10/10 180 м
[Cb cap]
+11.0 +10.5 97 +9 +9 очень
холодно
1009.4 1008.1
15 19.07 С 3 20 км {ливн. осадки, морось} 10/10 150 м
[St]
+11.0 +10.4 96 +9 +9 холодно 1008.6 1007.3 +11.6 2
18 19.07 С 1 4000 м в посл. час морось {ливн. осадки} 10/10 150 м
[St]
+10.8 +10.4 97 +10 +10 по сезону 1008.0 1006.7
21 19.07 СЗ 1 2000 м слаб. морось 10/10 120 м
[St]
+10.4 +10.2 99 +10 +10 по сезону 1007.4 1006.1
00 20.07 СЗ 1 500 м туман ?/? +10.0 +9.8 99 +9 +9 по сезону 1007.5 1006.2
03 20.07 З 1 4000 м дымка {дождь, туман} 10/10 120 м
[St]
+9.9 +9.7 99 +9 +9 прохладно 1007.4 1006.1 +9.7 0.6
06 20.07 ЮЗ 2 20 км {дождь, туман} 10/10 210 м
[St]
+10.8 +10.0 95 +9 +9 холодно 1007.6 1006.3
09 20.07 З 2 20 км 10/10 400 м
[Sc]
+12.7 +10.3 85 +12 +12 прохладно 1008.3 1007.0
12 20.07 З 3 20 км 10/10 360 м
[Sc]
+11.5 +9.1 85 +10 +10 очень
холодно
1009.5 1008.2
15 20.07 З 3 20 км в посл. час дождь 10/10 450 м
[Sc]
+11.0 +8.6 85 +9 +9 холодно 1010.2 1008.9 +12.8 0.0
18 20.07 З 2 20 км {дождь} 10/10 480 м
[Sc]
+9.6 +8.1 90 +8 +8 холодно 1011.2 1009.8
21 20.07 СЗ 2 20 км 10/10 450 м
[Sc]
+7.9 +6.3 90 +6 +6 холодно 1012.0 1010.7
00 21.07 С 2 20 км 10/10 270 м
[St]
+7.5 +5.9 90 +5 +5 прохладно 1013.0 1011.7
03 21.07 С 2 20 км 10/10 420 м
[Sc]
+8.0 +6.0 87 +6 +6 прохладно 1013.6 1012.3 +7.3
06 21.07 СЗ 3 20 км 10/10 400 м
[Sc]
+8.8 +6.5 85 +6 +6 холодно 1014.7 1013.3
09 21.07 С 2 20 км 10/10 500 м
[Sc]
+11.1 +7.5 78 +10 +10 холодно 1015.1 1013.8
12 21.07 С 3 20 км 10/10 570 м
[Sc]
+12.4 +8.8 79 +11 +11 холодно 1016.0 1014.7
15 21.07 С 2 20 км 10/10 500 м
[Sc]
+11.8 +8.6 81 +11 +11 прохладно 1016.6 1015.3 +12.8
18 21.07 СВ 3 20 км 9/9 420 м
[Sc]
+9.3 +7.4 88 +7 +7 холодно 1017.4 1016.1
21 21.07 СВ 2 20 км 10/10 300 м
[St]
+7.9 +6.3 90 +6 +6 прохладно 1017.4 1016.1
00 22.07 СВ 2 10 км слаб. морось 10/10 90 м
[St]
+7.6 +7.1 97 +5 +5 прохладно 1017.9 1016.6
03 22.07 С 4 4000 м слаб. морось 10/10 150 м
[St]
+7.7 +7.3 97 +4 +4 холодно 1018.4 1017.1 +7.4 0.0
06 22.07 С 3 20 км {морось} 10/10 210 м
[St]
+8.8 +7.4 91 +6 +6 холодно 1018.5 1017.2
09 22.07 С 5 20 км 9/3 300 м
[St Ci fib]
+11.2 +7.7 79 +9 +12 холодно 1018.2 1016.9
12 22.07 С 4 20 км 9/0
[Cs]
+12.6 +7.9 73 +11 +14 холодно 1018.0 1016.7
15 22.07 С 4
{10}
20 км 9/0
[Cs]
+12.7 +9.1 79 +11 +12 прохладно 1017.5 1016.2 +13.0 0.0
18 22.07 СВ 4
{10}
20 км 9/0
[Cs]
+11.2 +8.2 82 +9 +9 прохладно 1017.2 1015.9
21 22.07 СВ 4 20 км 9/0
[Cs]
+10.0 +7.4 84 +7 +7 прохладно 1016.8 1015.4
00 23.07 СВ 4
{10}
20 км 8/0
[Ac trans]
+9.2 +6.9 86 +6 +6 прохладно 1016.8 1015.5
03 23.07 СВ 3 20 км в посл. час ливневой дождь 10/0
[Ac und]
+8.9 +6.7 86 +6 +7 прохладно 1016.8 1015.5 +8.9 0.0
06 23.07 СВ 4 10 км слаб. ливневой дождь 10/10 300 м
[Cb cap]
+9.6 +8.5 93 +7 +7 холодно 1016.9 1015.6 +8.8

 

Местоположение метеостанции Нарьян-Мар (Ненецкий АО, Россия): широта 67.63 долгота 53.02 высота над уровнем моря 12 м.

В архиве по умолчанию представлена погода в Нарьян-Маре за последнюю неделю. Архивные данные за месяц целиком и за предыдущие месяцы, начиная с января 2011 года, Вы можете получить, выбрав интересующий диапазон дат из раскрывающегося списка и нажав кнопку "Ввод!".


*Определитесь, кто Вы:
робот инопланетянин человек

Внимание! Время в таблицах - всемирное. Для получения местного времени необходимо прибавить поправку, которая равна 3 ч.

Смотрите также архив погоды в соседних городах и на ближайших метеорологических станциях:

Погода в Коткино (Ненецкий АО, Россия) (105 км)
Погода в Сенгейском Шаре (Ненецкий АО, Россия) (120 км)
Погода на Мысе Константиновском (Ненецкий АО, Россия) (145 км)
Погода в Ходоварихе (Ненецкий АО, Россия) (148 км)
Погода в Окуневом Носу (Коми, Россия) (155 км)
Погода в Индиге (Ненецкий АО, Россия) (184 км)
Погода в Бугрино (Ненецкий АО, Россия) (200 км)
Погода в Мутном Материке (Коми, Россия) (209 км)
Погода в Хорей-Вере (Ненецкий АО, Россия) (214 км)
Погода в Варандее (Ненецкий АО, Россия) (245 км)

Пояснения к столбцам:

Ветер - указаны скорость ветра в м/с - средняя за 10 мин, порывы в срок и между сроками (в фигурных скобках) и направление, откуда дует ветер: С - северный, СВ - северо-восточный, В - восточный, ЮВ - юго-восточный, Ю - южный, ЮЗ - юго-западный, З - западный, СЗ - северо-западный.
Видимость - горизонтальная дальность видимости в метрах или километрах. При видимости от 1 до 10 км при отсутствии осадков обычно наблюдается дымка, при ухудшении видимости до 1 км и менее - туман. В сухую погоду видимость может ухудшаться дымом, пылью или мглою.
Явления - указаны атмосферные явления, наблюдавшиеся в срок или в последний час перед сроком; фигурными скобками обозначены явления, наблюдавшиеся между сроками (за 1-3 часа до срока); квадратными скобками обозначены град или гололедные отложения с указанием их диаметра в мм.
Облачность - указаны через наклонную черту общая и нижняя облачность в баллах и высота нижней границы облаков в метрах; квадратными скобками обозначены формы облаков: Ci - перистые, Cs - перисто-слоистые, Cc - перисто-кучевые, Ac - высококучевые, As - высокослоистые, Sc - слоисто-кучевые, Ns - слоисто-дождевые, Cu - кучевые, Cb - кучево-дождевые. Подробнее классификацию облаков см. в Атласе облаков (PDF).
T - Температура воздуха - температура, измеренная на высоте 2 м над землей.
Td - Температура точки росы - температура, при понижении до которой содержащийся в воздухе водяной пар достигнет насыщения.
f - Относительная влажность воздуха - влажноcть воздуха, измеренная на высоте 2 м над землей.
Te - Эффективная температура - температура, которую ощущает одетый по сезону человек в тени. Характеристика душности погоды. При расчете учитывается влияние влажности воздуха и скорости ветра на теплоощущения человека.
Tes - Эффективная температура на солнце - температура, которую ощущает человек, с поправкой на солнечный нагрев. Характеристика знойности погоды. Зависит от высоты солнца над горизонтом, облачности и скорости ветра. Ночью, в пасмурную погоду, а также при ветре 12 м/с и более поправка равна нулю.
P - Атмосферное давление - приведенное к уровню моря атмосферное давление.
Po - Атмосферное давление - измеренное на уровне метеостанции атмосферное давление.
Tmin - Минимальная температура - минимум температуры воздуха на высоте 2 м над землей.
Tmax - Максимальная температура - максимум температуры воздуха на высоте 2 м над землей.
R - Количество осадков - Количество выпавших осадков за период времени, мм. При наведении курсора мыши на число - период времени, за который выпало указанное количество осадков.
R24 - Количество осадков - Количество выпавших осадков за 24 часа, мм.
S - Снежный покров - Высота снежного покрова, см. При наведении курсора мыши на число - состояние снежного покрова и степень покрытия местности в баллах.